Regional Weather Roundup
Issued by NWS

Home | Current Version | Previous Version | Graphics & Text | Print | Product List | Glossary On
Versions: 1 2 3 4 5 6 7 8 9 10 11 12 13 14 15 16 17 18 19 20 21 22 23 24 25 26 27
000
ASUS45 KCYS 020910
RWRWY

WYOMING REGIONAL WEATHER ROUNDUP
NATIONAL WEATHER SERVICE CHEYENNE WY
200 AM MST FRI DEC 02 2016

NOTE:  "FAIR" INDICATES FEW OR NO CLOUDS BELOW 12,000 FEET
WITH NO SIGNIFICANT WEATHER AND/OR OBSTRUCTIONS TO VISIBILITY.

WYZ001-021000-
YELLOWSTONE NATIONAL PARK

CITY           SKY/WX    TMP DP  RH WIND       PRES   REMARKS
LK YELLOWSTONE   N/A      5   3  91 CALM      30.08R
W YELLOWSTONE  NOT AVBL

$$
WYZ002>013-054>058-071-098>099-021000-
NORTHERN WYOMING

CITY           SKY/WX    TMP DP  RH WIND       PRES   REMARKS
JACKSON        CLOUDY    16  12  86 CALM      30.11R
CODY           FAIR      19  13  77 CALM      30.10R
GREYBULL       CLOUDY    25  19  78 CALM      30.11R
WORLAND        CLOUDY    25  23  92 S6        30.10R WCI  18
SHERIDAN       FAIR      29  21  72 W10       30.09R WCI  20
BUFFALO        FAIR      31  16  54 CALM      30.07R
GILLETTE       CLOUDY    27  23  85 W10       30.06R WCI  17
HULETT         CLOUDY    21  19  93 SW3       30.08R
NEWCASTLE      PTSUNNY   23  23 100 CALM      30.09R

$$
WYZ014>020-022>026-101>103-021000-
CENTRAL WYOMING

CITY           SKY/WX    TMP DP  RH WIND       PRES   REMARKS
BIG PINEY      FAIR       8   3  80 N10       30.06R WCI  -6
PINEDALE       FAIR       1  -2  85 N13       30.06R WCI -16
DUBOIS         FAIR      12   5  73 N8        30.04R WCI   1
LANDER         CLOUDY    17  12  80 CALM      30.08R
RIVERTON       MOCLDY    19  13  77 W6        30.08R WCI  11
CASPER         CLOUDY    21  19  92 CALM      30.07R
DOUGLAS        MOCLDY    21  19  92 N6        30.08R WCI  13

$$
WYZ021-027>030-104>119-021000-
SOUTHERN WYOMING

CITY           SKY/WX    TMP DP  RH WIND       PRES   REMARKS
EVANSTON       CLOUDY    18  13  80 CALM      30.06S
FORT BRIDGER   FAIR      16  14  93 W9        30.09S WCI   5
ROCK SPRINGS   FAIR      12   9  87 SW9       30.06R WCI   0
DIXON          CLOUDY    11   8  89 CALM      30.11R
RAWLINS        FAIR      11   6  81 SE3       30.05R
SARATOGA       PTSUNNY   10   9  92 S6        30.05R WCI   1
LARAMIE        CLOUDY    14  12  92 N3        30.01R
CHEYENNE       CLOUDY    23  17  78 W6        30.04R WCI  16
TORRINGTON     FAIR      23  18  81 W5        30.08R WCI  17
PINE BLUFFS    FAIR      16  12  86 CALM      30.08R

$$




USA.gov is the U.S. government's official web portal to all federal, state and local government web resources and services.